Погода Шарья

Погода Шарья : погода сейчас, прогноз погоды и архив. Всё, что Вы хотите узнать о погоде Шарья!

Хотите узнать прогноз погоды Шарья? Тогда Вам сюда: Погода Шарья

Поиск расширенной информации на нашем сайте:

Другие новости

Новости СМИ2

Главная страница сайта

Новости сайта

02.10.2013

Напоминаем, что на нашем новом сайте вы можете получить высокодетализированные прогнозы погоды по пунктам России, СНГ и мира (включающие важные для авиации метеовеличины, такие как направление и скорость ветра, видимость, явления погоды, количество и форма облачности, нижняя и верхняя граница облачности), а также ознакомиться с разнообразными материалами по авиационной метеорологии и подборкой полезных ссылок на эту тему.

Сайт Метеоцентр.Азия посвящён разработке технологий оптимизации авиаметеорологического обслуживания, включая проектирование и перспективное создание нескольких автоматизированных авиаметеорологических систем:
- система выпуска высокодетальных прогностических карт явлений погоды для нижнего воздушного пространства по России и ближнему зарубежью;
- система верификации прогнозов TAF (выпускаемых синоптиками официальных АМСГ РФ и ближнего зарубежья) и AUTOTAF (выпускаемых сайтом Метеоцентр.Азия) - выявление ошибок, онлайн-сопоставление с фактической погодой METAR, автоматическое внесение коррективов в прогнозы при резком отклонении фактической погоды от прогноза, подсчёт оправдываемости прогнозов по элементам и в целом;
- система обработки, анализа и отображения авиаметеорологической информации для применения провайдерами метеорологической информации.

Рекомендуем: Чемпионат техника выполнения упражнений по бодибилдингу.

Погода Шарья - сегодня

Время (UTC), дата Ветер
(°,м/с) 
Видим.   Явления Облачность Т
(°С)
Тd
(°С)
f(%) Тe
(°С)
Pmin
(гПа)
dP
(гПа)
Po
(мм)
O2
(г/м3)
Тmin Tmax R s Состояние
почвы
15 22.05.17 360 (С) 10 км    10/8 1000 м средняя 
[Sc|Ac und]
+8.5 -5 38 +8  1010.9  0.5  747  292    +10.9       
18 22.05.17 тихо ()   10 км    3/0 средняя 
[Ac trans]
+2.1 -0.8 81 +2  1011.7  0.4  747  299           
21 22.05.17 150 (ЮВ) 10 км    ясно 
-1.8 -2.4 96 -1  1011.9  747  303           
00 23.05.17 тихо ()   10 км    ясно 
-3.4 -3.8 97 -3  1012.1  0.1  747  305           
03 23.05.17 тихо ()   10 км    ясно 
+4.6 -0.2 71 +5  1011.9  0.3  747  296  -3.9        влажная 
06 23.05.17 040 (СВ) 20000 м    3/3 1500 м 
[Cu hum]
+10.8 -4.4 34 +12  1011.6  747  290  -3.9         
09 23.05.17 320 (СЗ) 20000 м    8/3 1500 м средняя, верхняя 
[Cu hum|Ac cuf|Ci fib]
+12.9 -5.2 28 +14  1010.5  -1  747  288           
12 23.05.17 330 (СЗ) 20000 м    10/5 1500 м верхняя 
[Cu hum|Cc]
+14.4 -5.1 26 +15  1009.1  -1.3  746  286           
15 23.05.17 220 (ЮЗ) 20000 м    8/4 1000 м средняя 
[Sc|Ac cuf]
+15.3 -4.4 25 +16  1007.9  -1.1  745  285    +15.9       
18 23.05.17 220 (ЮЗ) 10 км    9/9 600 м 
[Sc]
+12.1 -2.6 36 +13  1008.1  745  288           
21 23.05.17 240 (ЮЗ) 10 км    10/8 600 м средняя 
[Sc|Ac trans]
+9.2 +0.3 54 +10  1008.3  0.1  745  290           
00 24.05.17 330 (СЗ) 20000 м    10/5 1500 м верхняя 
[Cu hum|Cc]
+14.4 -5.1 26 +15  1009.1  -1.3  746  286           
03 24.05.17 180 (Ю) 10 км    10/10 600 м кучево-дожд. 
[Cb cap]
+8.4 +3.7 72 +9  1008.8  0.4  745  291  +4.1        влажная 
06 24.05.17 330 (СЗ) 20000 м    8/0 средняя, верхняя 
[Ac trans|Ci fib]
+14.8 +3.8 48 +15  1009.3  0.8  746  284  +4.1         
09 24.05.17 310 (СЗ) 20000 м    9/3 1500 м средняя, верхняя 
[Cu hum|Ac trans|Ci sp]
+17.2 +1.2 34 +18  1010.2  747  283           
12 24.05.17 320 (СЗ) 3{10}  20000 м    3/1 1500 м средняя 
[Cu hum|Ac trans]
+18.5 -2.5 24 +19  1011.2  747  282           
15 24.05.17 330 (СЗ) 20000 м    8/0 верхняя 
[Ci fib]
+17.3 -3.6 24 +18  1011.8  0.6  748  284    +18.6       
18 24.05.17 030 (СВ) 10 км    6/0 верхняя 
[Ci fib]
+7.9 +0.8 61 +9  1014  1.6  749  293           
21 24.05.17 тихо ()   10 км    3/0 верхняя 
[Ci fib]
+1.2 -0.3 90 +1  1016  1.6  750  301           
00 25.05.17 тихо ()   10 км    3/0 верхняя 
[Ci fib]
-1.5 -1.9 97 -2  1016.7  0.6  751  304           
03 25.05.17 130 (ЮВ) 10 км    3/0 верхняя 
[Ci fib]
+9.9 -3.6 38 +11  1016.4  0.3  751  292  -1.8        влажная 
06 25.05.17 140 (ЮВ) 20000 м    3/0 средняя, верхняя 
[Ac cast|Ci fib]
+16.8 -3 26 +18  1015.3  -0.7  750  285  -1.8         
09 25.05.17 130 (ЮВ) 20000 м    9/0 средняя, верхняя 
[Ac cast|Cc]
+20 -0.8 25 +20  1013.8  -1.3  749  281           
12 25.05.17 140 (ЮВ) 20000 м    10/9 1000 м средняя 
[Sc|Ac und]
+18.1 +3.4 38 +19  1012.7  -1.2  749  282           
15 25.05.17 140 (ЮВ) 20000 м  {ливн. осадки}  10/3 1000 м кучево-дожд., средняя, верхняя 
[Cb cap|Ac trans|Ci sp]
+17.5 +5.7 46 +18  1009.6  -3.1  746  282    +20.7  0.0     
Время (UTC), дата Ветер
(°,м/с) 
Видим.   Явления Облачность Т
(°С)
Тd
(°С)
f(%) Тe
(°С)
Pmin
(гПа)
dP
(гПа)
Po
(мм)
O2
(г/м3)
Тmin Tmax R s Состояние
почвы

Для получения пояснительной информации подведите курсор к названию столбца.

ПОГОДА Шарья - архив

Всё, что Вы хотите узнать о погоде Шарья - удобно и подробно!

Выберите нужную дату (начиная с 1 января 2015* года) и нажмите кнопку "Найти".
Будут отображены архивные сводки погоды по пункту Шарья, начиная с указанной даты.


Отображать данные в формате CSV (для использования в таблицах Excel)


Внимание! Наш архив погоды предназначен исключительно для личного некоммерческого использования в познавательных целях. Если Вам необходимы официальные справки о состоянии погоды (для производственных, юридических, коммерческих и т.п. целей), обращайтесь в органы Росгидромета.

*Примечание: данная дата относится к архиву по метеостанциям СССР (Россия, СНГ, Балтия).
Архив по метеостанциям Зарубежной Европы и Азии (кроме Китая) хранится 10 дней, по другим регионам земного шара (Китай, Африка, Америка, Австралия, Океания) - 1 день.

Шарья - район местоположения метеостанции


Название, широта, долгота, высота метеостанции:
Шарья 58.4°ш. 45.5°д. 125 м над ур. моря [Российская Федерация]

Дополнительная информация

В oтличие oт бoльшинства пoгoдных сайтoв мы публикуем пoдрoбную метеoинфoрмацию в детальнoм прoфессиoнальнoм фoрмате.

Характеристики температуры и влажнoсти вoздуха измеряются на высoте 2 м в тени вдали oт зданий и деревьев.
Скoрoсть ветра измеряется на высoте 10 м (на урoвне рoста челoвека скoрoсть ветра ниже в 1.5-2 раза). Если метеoстанция нахoдится в гoрoде или в лесу, тo скoрoсть ветра занижена на 2-4 м/с пo сравнению с oткрытым местoм. Скoрoсть ветра над акватoриями крупных рек и oзёр, а также на вершинах хoлмoв на 2-5 м/с выше, чем в oбычных услoвиях.
Атмoсфернoе давление в разных тoчках местнoсти мoжет значительнo oтличаться oт давления на метеoстанции, в зависимoсти oт услoвий рельефа (при пoдъёме на 10 м давление пoнижается примернo на 1 мм рт.ст.).